COSMO-SKYMED 3

Last updated on Tue Sep 16 2025 00:02:30 GMT+0000 (Coordinated Universal Time)

1 33412U 08054A 25258.62655108 .00003544 00000+0 25903-3 0 9992 2 33412 97.8601 107.5570 0018217 113.0555 247.2594 15.04182170915625
UTC large
Height (km)
Speed (km/s)
/
Latitude / Longitude
Inclination (degrees)
Orbital Period (minutes)
Azimuth
Elevation
Range (km)
Doppler Factor

Next 0 passes for location: London (51.5072 / 0.1276)

Sorry there are no passes over London.